Flag for U.S.A. Weather past 2 weeks in Howell, Michigan, U.S.A.

Now
70 °F

Fog.


Feels Like: 70 °F
Forecast: 66 / 79 °F
Wind: No wind

Location: Livingston County Airport

Current Time: Aug 22, 2014 at 2:30:32 AM

Latest Report: Aug 22, 2014 at 1:55 AM


Visibility: 5 mi

Pressure: 29.99 "Hg

Humidity: 98%

Dew point: 69 °F

Location of HowellLocation

Historic Weather in Howell — Graph

°F

Howell temperature yesterday

Maximum temperature yesterday: 78 °F (at 3:35 PM)
Minimum temperature yesterday: 60 °F (at 5:55 AM)
Average temperature yesterday: 70 °F

Past Weeks' High & Low Weather Summary

 TemperatureHumidityPressure
High82 °F (Aug 10, 3:15 PM)100% (Aug 9, 7:35 AM)30.18 "Hg (Aug 9, 7:35 AM)
Low43 °F (Aug 15, 6:55 AM)38% (Aug 15, 5:54 PM)29.69 "Hg (Aug 12, 4:34 AM)
Average66 °F77%29.97 "Hg
* Reported Aug 7 1:15 AM — Aug 22 1:35 AM, Howell, Weather by CustomWeather, © 2014

Note: Actual official high and low records may vary slightly from our data, if they occured in-between our weather recording intervals... More about our weather records

Advertising

Howell weather history for previous 24 hours

 ConditionsComfort  
Time TempWeatherWind HumidityBarometerVisibility
1:35 AM
Aug 22
70 °FOvercast.No wind97%30.00 "Hg7 mi
1:15 AM70 °FFog.No wind98%30.00 "Hg5 mi
12:55 AM70 °FFog.No wind97%30.00 "Hg5 mi
12:35 AM70 °FMostly cloudy.No wind96%30.00 "Hg7 mi
12:15 AM70 °FPartly cloudy.No wind97%30.00 "Hg7 mi
11:55 PM
Aug 21
70 °FPassing clouds.No wind98%29.99 "Hg7 mi
11:35 PM69 °FFog.No wind98%30.00 "Hg5 mi
11:15 PM69 °FFog.No wind96%29.99 "Hg5 mi
10:55 PM70 °FPassing clouds.No wind97%29.98 "Hg7 mi
10:34 PM70 °FPartly cloudy.No wind95%29.98 "Hg7 mi
10:15 PM70 °FMostly cloudy.No wind95%29.98 "Hg7 mi
9:55 PM71 °FDrizzle. Mostly cloudy.No wind92%29.98 "Hg7 mi
9:34 PM72 °FMostly cloudy.No wind90%29.98 "Hg10 mi
9:15 PM71 °FBroken clouds.No wind90%29.98 "Hg10 mi
8:55 PM72 °FCloudy.No wind86%29.98 "Hg10 mi
8:34 PM73 °FCloudy.3 mph85%29.97 "Hg10 mi
8:15 PM73 °FCloudy.5 mph85%29.97 "Hg10 mi
7:55 PM73 °FBroken clouds.5 mph82%29.97 "Hg10 mi
7:34 PM74 °FPartly sunny.7 mph79%29.97 "Hg10 mi
7:15 PM78 °FBroken clouds.No wind76%29.96 "Hg10 mi
6:55 PM77 °FScattered clouds.No wind77%29.96 "Hg10 mi
6:34 PM78 °FScattered clouds.No wind73%29.97 "Hg10 mi
6:15 PM78 °FBroken clouds.5 mph75%29.98 "Hg10 mi
5:55 PM78 °FMore clouds than sun.5 mph75%29.98 "Hg10 mi
5:35 PM78 °FCloudy.6 mph74%29.98 "Hg10 mi
5:15 PM78 °FCloudy.5 mph74%29.98 "Hg10 mi
4:55 PM78 °FCloudy.5 mph73%29.98 "Hg10 mi
4:35 PM78 °FBroken clouds.5 mph72%29.98 "Hg10 mi
4:15 PM78 °FBroken clouds.5 mph73%29.98 "Hg10 mi
3:55 PM78 °FBroken clouds.3 mph71%29.98 "Hg10 mi
3:35 PM78 °FScattered clouds.No wind71%29.98 "Hg10 mi
3:15 PM78 °FScattered clouds.6 mph72%29.98 "Hg10 mi
2:55 PM76 °FScattered clouds.5 mph72%29.98 "Hg10 mi
2:35 PM77 °FScattered clouds.5 mph71%29.98 "Hg10 mi
1:55 PM74 °FOvercast.3 mph75%29.99 "Hg10 mi
1:35 PM75 °FMore clouds than sun.6 mph72%30.00 "Hg10 mi
1:15 PM75 °FCloudy.No wind71%30.00 "Hg10 mi
12:54 PM74 °FMostly cloudy.5 mph74%30.00 "Hg10 mi
12:35 PM74 °FOvercast.No wind73%30.01 "Hg10 mi
12:15 PM74 °FMostly cloudy.No wind70%30.01 "Hg10 mi
11:54 AM74 °FBroken clouds.No wind70%30.01 "Hg10 mi
11:35 AM74 °FMore clouds than sun.No wind72%30.01 "Hg10 mi
11:15 AM73 °FScattered clouds.No wind72%30.02 "Hg10 mi
10:55 AM72 °FSunny.5 mph76%30.02 "Hg10 mi
10:35 AM72 °FSunny.No wind77%30.01 "Hg10 mi
10:15 AM70 °FSunny.No wind83%30.00 "Hg10 mi
9:55 AM70 °FSunny.3 mph85%30.00 "Hg10 mi
9:35 AM68 °FSunny.3 mph88%30.00 "Hg10 mi
9:15 AM67 °FSunny.No wind92%29.99 "Hg10 mi
8:55 AM65 °FSunny.No wind94%29.99 "Hg10 mi
8:35 AM64 °FSunny.5 mph97%29.99 "Hg10 mi
7:55 AM63 °FFog.No wind99%29.99 "Hg4 mi
7:35 AM62 °FFog.No wind99%29.99 "Hg4 mi
7:14 AM61 °FFog.No wind99%29.98 "Hg2 mi
6:55 AM60 °FFog.No wind99%29.98 "Hg3 mi
6:35 AM61 °FFog.No wind99%29.97 "Hg4 mi
5:55 AM60 °FFog.No wind98%29.96 "Hg3 mi
5:35 AM61 °FFog.No wind98%29.97 "Hg5 mi
5:14 AM62 °FFog.No wind98%29.96 "Hg5 mi
4:55 AM62 °FFog.No wind98%29.97 "Hg4 mi
4:35 AM62 °FClear.No wind97%29.97 "Hg7 mi
4:14 AM62 °FClear.No wind96%29.97 "Hg7 mi
3:55 AM63 °FPassing clouds.No wind96%29.97 "Hg10 mi
3:35 AM63 °FPassing clouds.No wind97%29.97 "Hg10 mi
3:14 AM64 °FClear.No wind96%29.97 "Hg10 mi
2:55 AM62 °FClear.No wind96%29.97 "Hg10 mi
2:35 AM63 °FClear.No wind95%29.98 "Hg10 mi
Weather by CustomWeather, © 2014

See weather overviewHow to use our weather pages